Location: Caltech
(34.1382°N, 118.1253°W)
Time: 03:32:23
(UTC-07:00)

Cosmos 1833 - Visible Passes

Search period start: 02 September 2015 00:00
Search period end: 12 September 2015 00:00
Orbit: 836 x 863 km, 70.9° (Epoch: 02 September)

Date Brightness Start Highest point End Pass type
(mag) Time Alt. Az. Time Alt. Az. Time Alt. Az.
02 Sep 5.6 19:37:38 10° N 19:41:40 20° NE 19:45:51 10° ESE visible
02 Sep 4.9 21:20:46 10° NNW 21:26:16 50° WSW 21:28:31 32° SSW visible
03 Sep 4.9 21:08:03 10° NNW 21:13:34 51° WSW 21:16:45 24° S visible
04 Sep 4.9 20:55:20 10° NNW 21:00:51 51° WSW 21:05:07 16° S visible
05 Sep 4.9 20:42:37 10° NNW 20:48:09 52° WSW 20:53:35 10° S visible
06 Sep 4.9 20:29:54 10° NNW 20:35:26 53° WSW 20:40:53 10° S visible
07 Sep 5.0 20:17:11 10° NNW 20:22:43 53° WSW 20:28:11 10° S visible
08 Sep 5.0 20:04:28 10° NNW 20:10:01 54° WSW 20:15:28 10° S visible
09 Sep 5.0 19:51:46 10° NNW 19:57:18 54° WSW 20:02:46 10° S visible
10 Sep 5.0 19:39:03 10° NNW 19:44:36 55° WSW 19:50:04 10° S visible
11 Sep 5.1 19:26:20 10° NNW 19:31:53 55° WSW 19:37:22 10° S visible
